Time,TemperatureF,DewpointF,PressureIn,WindDirection,WindDirectionDegrees,WindSpeedMPH,WindSpeedGustMPH,Humidity,HourlyPrecipIn,Conditions,Clouds,dailyrainin,SoftwareType,DateUTC
2013-07-10 00:19:00,75.1,74.0,30.01,NNW,333,0.0,0.0,95,0.00,,,0.13,weatherlink.com 1.10,2013-07-10 04:19:00,
2013-07-10 00:34:00,74.8,73.0,30.01,NNW,333,0.0,0.0,95,0.00,,,0.13,weatherlink.com 1.10,2013-07-10 04:34:00,
2013-07-10 00:49:00,74.5,73.0,30.02,NNW,333,0.0,0.0,95,0.00,,,0.00,weatherlink.com 1.10,2013-07-10 04:49:00,
2013-07-10 01:04:00,74.3,73.0,30.02,NNW,333,0.0,0.0,96,0.00,,,0.00,weatherlink.com 1.10,2013-07-10 05:04:00,
2013-07-10 01:19:00,74.2,73.0,30.02,NNW,333,0.0,0.0,95,0.00,,,0.00,weatherlink.com 1.10,2013-07-10 05:19:00,
2013-07-10 01:34:00,74.0,73.0,30.01,NNW,333,0.0,0.0,95,0.00,,,0.00,weatherlink.com 1.10,2013-07-10 05:34:00,
2013-07-10 01:49:00,73.8,73.0,30.01,NNW,333,0.0,0.0,96,0.00,,,0.00,weatherlink.com 1.10,2013-07-10 05:49:00,
2013-07-10 02:04:00,73.7,73.0,30.01,NNW,333,0.0,0.0,96,0.00,,,0.00,weatherlink.com 1.10,2013-07-10 06:04:00,
2013-07-10 02:19:00,73.5,72.0,30.00,NNW,333,0.0,0.0,96,0.00,,,0.00,weatherlink.com 1.10,2013-07-10 06:19:00,
2013-07-10 02:34:00,73.3,72.0,30.00,NNW,333,0.0,0.0,96,0.00,,,0.00,weatherlink.com 1.10,2013-07-10 06:34:00,
2013-07-10 02:49:00,73.0,72.0,30.00,NNW,333,0.0,0.0,96,0.00,,,0.00,weatherlink.com 1.10,2013-07-10 06:49:00,
2013-07-10 03:04:00,72.8,72.0,30.00,NNW,333,0.0,0.0,96,0.00,,,0.00,weatherlink.com 1.10,2013-07-10 07:04:00,
2013-07-10 03:19:00,72.8,72.0,29.99,NNW,333,0.0,0.0,96,0.00,,,0.00,weatherlink.com 1.10,2013-07-10 07:19:00,
2013-07-10 03:34:00,72.5,71.0,29.99,NNW,333,0.0,0.0,96,0.00,,,0.00,weatherlink.com 1.10,2013-07-10 07:34:00,
2013-07-10 03:49:00,72.3,71.0,29.98,NNW,333,0.0,0.0,96,0.00,,,0.00,weatherlink.com 1.10,2013-07-10 07:49:00,
2013-07-10 04:04:00,72.0,71.0,29.99,NNW,333,0.0,0.0,96,0.00,,,0.00,weatherlink.com 1.10,2013-07-10 08:04:00,
2013-07-10 04:34:00,71.9,71.0,29.99,NNW,333,0.0,0.0,96,0.00,,,0.00,weatherlink.com 1.10,2013-07-10 08:34:00,
2013-07-10 04:49:00,71.6,70.0,30.00,NNW,333,0.0,0.0,96,0.00,,,0.00,weatherlink.com 1.10,2013-07-10 08:49:00,
2013-07-10 05:04:00,71.4,70.0,30.00,NNW,333,0.0,0.0,96,0.00,,,0.00,weatherlink.com 1.10,2013-07-10 09:04:00,
2013-07-10 05:19:00,71.3,70.0,30.00,NNW,333,0.0,0.0,96,0.00,,,0.00,weatherlink.com 1.10,2013-07-10 09:19:00,
2013-07-10 05:34:00,71.1,70.0,30.00,NNW,333,0.0,0.0,96,0.00,,,0.00,weatherlink.com 1.10,2013-07-10 09:34:00,
2013-07-10 05:49:00,71.1,70.0,30.00,NNW,333,0.0,0.0,96,0.00,,,0.00,weatherlink.com 1.10,2013-07-10 09:49:00,
2013-07-10 06:04:00,70.9,70.0,30.00,NNW,333,0.0,0.0,96,0.00,,,0.00,weatherlink.com 1.10,2013-07-10 10:04:00,
2013-07-10 06:34:00,71.0,70.0,30.01,NNW,333,0.0,0.0,96,0.00,,,0.00,weatherlink.com 1.10,2013-07-10 10:34:00,
2013-07-10 06:49:00,71.1,70.0,30.00,NNW,333,0.0,0.0,96,0.00,,,0.00,weatherlink.com 1.10,2013-07-10 10:49:00,
2013-07-10 07:04:00,71.3,70.0,30.00,NNW,333,0.0,0.0,96,0.00,,,0.00,weatherlink.com 1.10,2013-07-10 11:04:00,
2013-07-10 07:49:00,72.4,71.0,30.00,NNW,333,0.0,0.0,96,0.00,,,0.00,weatherlink.com 1.10,2013-07-10 11:49:00,
2013-07-10 08:19:00,73.5,72.0,30.00,NNW,333,0.0,0.0,96,0.00,,,0.00,weatherlink.com 1.10,2013-07-10 12:19:00,
2013-07-10 08:34:00,74.3,73.0,30.00,NNW,333,0.0,0.0,96,0.00,,,0.00,weatherlink.com 1.10,2013-07-10 12:34:00,
2013-07-10 08:50:00,76.2,74.0,30.00,NNW,333,0.0,0.0,94,0.00,,,0.00,weatherlink.com 1.10,2013-07-10 12:50:00,
2013-07-10 09:05:00,77.4,75.0,30.00,NNW,329,0.0,3.0,91,0.00,,,0.00,weatherlink.com 1.10,2013-07-10 13:05:00,
2013-07-10 09:20:00,78.8,75.0,30.00,South,181,0.0,3.0,89,0.00,,,0.00,weatherlink.com 1.10,2013-07-10 13:20:00,
2013-07-10 09:35:00,80.4,76.0,30.00,SE,146,0.0,3.0,87,0.00,,,0.00,weatherlink.com 1.10,2013-07-10 13:35:00,
2013-07-10 09:50:00,82.0,77.0,30.00,ESE,102,3.0,3.0,84,0.00,,,0.00,weatherlink.com 1.10,2013-07-10 13:50:00,
2013-07-10 10:05:00,82.5,77.0,30.00,ESE,106,0.0,4.0,83,0.00,,,0.00,weatherlink.com 1.10,2013-07-10 14:05:00,
2013-07-10 10:20:00,83.9,77.0,30.00,SE,126,0.0,3.0,80,0.00,,,0.00,weatherlink.com 1.10,2013-07-10 14:20:00,
2013-07-10 10:35:00,84.6,77.0,29.99,SW,230,0.0,2.0,78,0.00,,,0.00,weatherlink.com 1.10,2013-07-10 14:35:00,
2013-07-10 10:50:00,85.5,78.0,29.99,ESE,106,3.0,4.0,77,0.00,,,0.00,weatherlink.com 1.10,2013-07-10 14:50:00,
2013-07-10 11:20:00,87.2,78.0,29.99,ESE,113,2.0,6.0,74,0.00,,,0.00,weatherlink.com 1.10,2013-07-10 15:20:00,
2013-07-10 11:50:00,88.7,78.0,29.98,SSE,153,1.0,4.0,71,0.00,,,0.00,weatherlink.com 1.10,2013-07-10 15:50:00,
2013-07-10 12:05:00,88.8,78.0,29.97,ESE,106,1.0,8.0,70,0.00,,,0.00,weatherlink.com 1.10,2013-07-10 16:05:00,
2013-07-10 12:21:00,90.1,80.0,29.96,SSE,162,1.0,5.0,71,0.00,,,0.00,weatherlink.com 1.10,2013-07-10 16:21:00,
2013-07-10 13:06:00,87.0,78.0,29.95,NW,307,4.0,7.0,74,0.05,,,0.05,weatherlink.com 1.10,2013-07-10 17:06:00,
2013-07-10 13:21:00,80.3,77.0,29.94,North,5,0.0,2.0,89,0.08,,,0.08,weatherlink.com 1.10,2013-07-10 17:21:00,
2013-07-10 13:36:00,79.8,77.0,29.94,North,5,0.0,1.0,92,0.08,,,0.08,weatherlink.com 1.10,2013-07-10 17:36:00,
2013-07-10 13:51:00,80.8,79.0,29.93,North,360,0.0,0.0,93,0.08,,,0.08,weatherlink.com 1.10,2013-07-10 17:51:00,
2013-07-10 14:06:00,81.4,80.0,29.95,North,360,0.0,1.0,94,0.02,,,0.08,weatherlink.com 1.10,2013-07-10 18:06:00,
2013-07-10 14:21:00,81.6,79.0,29.94,North,5,0.0,3.0,90,0.00,,,0.08,weatherlink.com 1.10,2013-07-10 18:21:00,
2013-07-10 14:51:00,82.3,79.0,29.93,North,360,0.0,1.0,88,0.00,,,0.08,weatherlink.com 1.10,2013-07-10 18:51:00,
2013-07-10 15:06:00,82.1,78.0,29.92,ENE,66,0.0,1.0,86,0.00,,,0.08,weatherlink.com 1.10,2013-07-10 19:06:00,
2013-07-10 15:21:00,82.1,78.0,29.91,ENE,65,0.0,0.0,88,0.00,,,0.08,weatherlink.com 1.10,2013-07-10 19:21:00,
2013-07-10 15:36:00,82.1,78.0,29.91,ESE,104,1.0,4.0,87,0.00,,,0.08,weatherlink.com 1.10,2013-07-10 19:36:00,
2013-07-10 15:51:00,82.9,78.0,29.89,East,101,0.0,3.0,84,0.00,,,0.08,weatherlink.com 1.10,2013-07-10 19:51:00,
2013-07-10 16:06:00,83.9,78.0,29.89,ESE,102,0.0,2.0,83,0.00,,,0.08,weatherlink.com 1.10,2013-07-10 20:06:00,
2013-07-10 16:21:00,84.7,78.0,29.88,East,96,1.0,6.0,80,0.00,,,0.08,weatherlink.com 1.10,2013-07-10 20:21:00,
2013-07-10 16:36:00,86.1,77.0,29.87,SSW,206,3.0,5.0,75,0.00,,,0.08,weatherlink.com 1.10,2013-07-10 20:36:00,
2013-07-10 16:51:00,85.9,78.0,29.88,ESE,103,6.0,7.0,76,0.00,,,0.08,weatherlink.com 1.10,2013-07-10 20:51:00,
2013-07-10 17:06:00,85.7,77.0,29.88,SE,141,0.0,7.0,76,0.00,,,0.08,weatherlink.com 1.10,2013-07-10 21:06:00,
2013-07-10 17:21:00,86.3,78.0,29.88,East,98,2.0,8.0,75,0.00,,,0.08,weatherlink.com 1.10,2013-07-10 21:21:00,
2013-07-10 17:51:00,85.9,78.0,29.87,East,98,2.0,4.0,77,0.00,,,0.08,weatherlink.com 1.10,2013-07-10 21:51:00,
2013-07-10 18:06:00,85.2,78.0,29.85,ESE,109,2.0,7.0,78,0.00,,,0.08,weatherlink.com 1.10,2013-07-10 22:06:00,
2013-07-10 18:36:00,85.0,77.0,29.86,SE,130,0.0,2.0,78,0.00,,,0.08,weatherlink.com 1.10,2013-07-10 22:36:00,
2013-07-10 18:51:00,84.9,77.0,29.86,SE,134,0.0,3.0,76,0.01,,,0.09,weatherlink.com 1.10,2013-07-10 22:51:00,
2013-07-10 19:21:00,82.7,78.0,29.89,East,97,0.0,3.0,84,0.01,,,0.09,weatherlink.com 1.10,2013-07-10 23:21:00,
2013-07-10 19:36:00,81.1,73.0,29.92,West,268,2.0,10.0,77,0.01,,,0.09,weatherlink.com 1.10,2013-07-10 23:36:00,
2013-07-10 20:06:00,71.2,69.0,29.90,ENE,71,0.0,2.0,91,0.09,,,0.18,weatherlink.com 1.10,2013-07-11 00:06:00,
2013-07-10 20:21:00,70.7,69.0,29.89,SSE,153,2.0,4.0,93,0.10,,,0.19,weatherlink.com 1.10,2013-07-11 00:21:00,
2013-07-10 20:36:00,70.7,69.0,29.89,SSE,152,0.0,2.0,94,0.10,,,0.19,weatherlink.com 1.10,2013-07-11 00:36:00,
2013-07-10 21:06:00,-999.0,-99.9,29.91,North,-999,-999.0,-999.0,-999,0.01,,,0.19,weatherlink.com 1.10,2013-07-11 01:06:00,
2013-07-10 21:21:00,-999.0,-99.9,29.91,North,-999,-999.0,-999.0,-999,0.00,,,0.19,weatherlink.com 1.10,2013-07-11 01:21:00,
2013-07-10 21:36:00,-999.0,-99.9,29.91,North,-999,-999.0,-999.0,-999,0.00,,,0.19,weatherlink.com 1.10,2013-07-11 01:36:00,
2013-07-10 21:51:00,-999.0,-99.9,29.89,North,-999,-999.0,-999.0,-999,0.00,,,0.19,weatherlink.com 1.10,2013-07-11 01:51:00,
2013-07-10 22:06:00,-999.0,-99.9,29.90,North,-999,-999.0,-999.0,-999,0.00,,,0.19,weatherlink.com 1.10,2013-07-11 02:06:00,
2013-07-10 22:21:00,-999.0,-99.9,29.91,North,-999,-999.0,-999.0,-999,0.00,,,0.19,weatherlink.com 1.10,2013-07-11 02:21:00,
2013-07-10 22:36:00,-999.0,-99.9,29.91,North,-999,-999.0,-999.0,-999,0.00,,,0.19,weatherlink.com 1.10,2013-07-11 02:36:00,
2013-07-10 23:06:00,-999.0,-99.9,29.93,North,-999,-999.0,-999.0,-999,0.00,,,0.19,weatherlink.com 1.10,2013-07-11 03:06:00,
2013-07-10 23:21:00,-999.0,-99.9,29.95,North,-999,-999.0,-999.0,-999,0.00,,,0.19,weatherlink.com 1.10,2013-07-11 03:21:00,
2013-07-10 23:51:00,-999.0,-99.9,29.93,North,-999,-999.0,-999.0,-999,0.00,,,0.19,weatherlink.com 1.10,2013-07-11 03:51:00,